Location: ?????
(44.4284°N, 135.2222°E)
Time: 11:23:29
(UTC+00:00)

MSX - Pass Details

Date: 19 May 2025
Orbit: 894 x 905 km, 99.0° (Epoch: 13 June)

Event Time Altitude Azimuth Distance (km) Brightness Sun altitude
Rises 17:25:09 0° 9° (N) 3,538 8.1 -17.1°
Reaches altitude 10° 17:27:39 10° 4° (N) 2,591 7.1 -16.9°
Maximum altitude 17:33:09 48° 292° (WNW) 1,169 4.3 -16.3°
Enters shadow 17:36:21 24° 230° (SW) 1,784 4.8 -15.9°
